• In Hungary
  • List of Countries
  • For 7 days
  • Water Temperature
  • Satellite Maps
  • Weather Map
  • News
  • Weather Widgets
  • user-avatar
    Login

    Hourly Weather Rumburk

    Today, 13 December, Wednesday

    Time Temperature Precipitation Wind Pressure Humidity
    00:00 -2°C° 0 mm 3 mps 722 mmHg 83%
    01:00 -2°C° 0 mm 3 mps 723 mmHg 84%
    02:00 -2°C° 0 mm 3 mps 723 mmHg 85%
    03:00 -2°C° 0 mm 3 mps 723 mmHg 85%
    04:00 -4°C° 0 mm 3 mps 723 mmHg 86%
    05:00 -4°C° 0 mm 3 mps 723 mmHg 86%
    06:00 -4°C° 0 mm 3 mps 723 mmHg 86%
    07:00 -4°C° 0 mm 3 mps 723 mmHg 86%
    08:00 -4°C° 0 mm 3 mps 723 mmHg 82%
    09:00 -3°C° 0 mm 4 mps 723 mmHg 78%
    10:00 -2°C° 0 mm 4 mps 723 mmHg 74%
    11:00 -2°C° 0 mm 4 mps 723 mmHg 72%
    12:00 -1°C° 0 mm 5 mps 722 mmHg 69%
    13:00 0°C° 0 mm 5 mps 722 mmHg 67%
    14:00 -1°C° 0 mm 5 mps 721 mmHg 68%
    15:00 -1°C° 0 mm 5 mps 720 mmHg 70%
    16:00 -2°C° 0 mm 5 mps 719 mmHg 71%
    17:00 -3°C° 0 mm 6 mps 718 mmHg 70%
    18:00 -3°C° 0 mm 6 mps 717 mmHg 68%
    19:00 -3°C° 0 mm 7 mps 716 mmHg 67%
    20:00 -3°C° 0.1 mm 7 mps 715 mmHg 65%
    21:00 -3°C° 0.1 mm 7 mps 714 mmHg 64%
    22:00 -2°C° 0.1 mm 7 mps 713 mmHg 62%
    23:00 -2°C° 0.1 mm 7 mps 712 mmHg 63%

    Tomorrow, 14 December, Thursday

    Time Temperature Precipitation Wind Pressure Humidity
    00:00 -2°C° 0.1 mm 7 mps 711 mmHg 63%
    01:00 -1°C° 0.1 mm 7 mps 710 mmHg 64%
    02:00 -1°C° 0.3 mm 8 mps 709 mmHg 67%
    03:00 -1°C° 0.3 mm 8 mps 708 mmHg 70%
    04:00 0°C° 0.3 mm 9 mps 707 mmHg 74%
    05:00 0°C° 0.4 mm 8 mps 707 mmHg 74%
    06:00 0°C° 0.4 mm 7 mps 708 mmHg 75%
    07:00 -1°C° 0.4 mm 6 mps 708 mmHg 76%
    08:00 -1°C° 0.2 mm 7 mps 708 mmHg 73%
    09:00 -1°C° 0.2 mm 8 mps 709 mmHg 70%
    10:00 -3°C° 0.2 mm 9 mps 709 mmHg 67%
    11:00 -1°C° 0.4 mm 9 mps 710 mmHg 66%
    12:00 -1°C° 0.4 mm 9 mps 711 mmHg 65%
    13:00 -1°C° 0.4 mm 8 mps 712 mmHg 65%
    14:00 -2°C° 0 mm 7 mps 712 mmHg 67%
    15:00 -2°C° 0 mm 6 mps 712 mmHg 69%
    16:00 -2°C° 0 mm 5 mps 712 mmHg 71%
    17:00 -2°C° 0 mm 5 mps 711 mmHg 72%
    18:00 -2°C° 0 mm 5 mps 711 mmHg 74%
    19:00 -2°C° 0 mm 5 mps 711 mmHg 76%
    20:00 -2°C° 0 mm 5 mps 710 mmHg 77%
    21:00 -2°C° 0 mm 5 mps 709 mmHg 78%
    22:00 -3°C° 0 mm 6 mps 708 mmHg 78%
    23:00 -2°C° 0.2 mm 6 mps 707 mmHg 80%

    Day after tomorrow, 15 December, Friday

    Time Temperature Precipitation Wind Pressure Humidity
    00:00 -2°C° 0.2 mm 6 mps 706 mmHg 81%
    01:00 -1°C° 0.2 mm 6 mps 705 mmHg 82%
    02:00 -1°C° 0.6 mm 7 mps 705 mmHg 80%
    03:00 -1°C° 0.6 mm 7 mps 704 mmHg 78%
    04:00 0°C° 0.6 mm 8 mps 703 mmHg 77%
    05:00 -1°C° 0.2 mm 8 mps 704 mmHg 75%
    06:00 -1°C° 0.2 mm 8 mps 704 mmHg 74%
    07:00 -1°C° 0.2 mm 9 mps 705 mmHg 73%
    08:00 -2°C° 0.2 mm 8 mps 706 mmHg 75%
    09:00 -2°C° 0.2 mm 7 mps 707 mmHg 77%
    10:00 -2°C° 0.2 mm 6 mps 708 mmHg 78%
    11:00 -2°C° 0 mm 6 mps 709 mmHg 77%
    12:00 -2°C° 0 mm 6 mps 709 mmHg 75%
    13:00 -1°C° 0 mm 6 mps 710 mmHg 74%
    14:00 -1°C° 0 mm 5 mps 710 mmHg 76%
    15:00 -2°C° 0 mm 4 mps 710 mmHg 78%
    16:00 -2°C° 0 mm 2 mps 710 mmHg 81%
    17:00 -2°C° 0.1 mm 2 mps 710 mmHg 82%
    18:00 -2°C° 0.1 mm 2 mps 711 mmHg 83%
    19:00 -2°C° 0.1 mm 2 mps 711 mmHg 85%
    20:00 -2°C° 0 mm 2 mps 711 mmHg 86%
    21:00 -2°C° 0 mm 2 mps 711 mmHg 88%
    22:00 -2°C° 0 mm 3 mps 711 mmHg 90%
    23:00 -2°C° 0 mm 3 mps 712 mmHg 90%

    16 December, Saturday

    Time Temperature Precipitation Wind Pressure Humidity
    00:00 -2°C° 0 mm 3 mps 712 mmHg 90%
    01:00 -2°C° 0 mm 3 mps 712 mmHg 90%
    02:00 -2°C° 0 mm 3 mps 712 mmHg 90%
    03:00 -2°C° 0 mm 3 mps 712 mmHg 90%
    04:00 -2°C° 0 mm 3 mps 712 mmHg 90%
    05:00 -3°C° 0.1 mm 4 mps 713 mmHg 90%
    06:00 -3°C° 0.1 mm 4 mps 713 mmHg 89%
    07:00 -3°C° 0.1 mm 4 mps 714 mmHg 89%
    08:00 -2°C° 0 mm 4 mps 715 mmHg 87%
    09:00 -2°C° 0 mm 4 mps 715 mmHg 86%
    10:00 -2°C° 0 mm 5 mps 716 mmHg 84%
    11:00 -1°C° 0.1 mm 5 mps 716 mmHg 82%
    12:00 -1°C° 0.1 mm 5 mps 716 mmHg 81%
    13:00 -2°C° 0.1 mm 6 mps 717 mmHg 79%
    14:00 -1°C° 0.1 mm 5 mps 717 mmHg 80%
    15:00 -1°C° 0.1 mm 5 mps 717 mmHg 81%
    16:00 -2°C° 0.1 mm 4 mps 718 mmHg 83%
    17:00 -2°C° 0 mm 4 mps 718 mmHg 84%
    18:00 -3°C° 0 mm 4 mps 718 mmHg 85%
    19:00 -3°C° 0 mm 4 mps 719 mmHg 87%
    20:00 -3°C° 0 mm 4 mps 719 mmHg 87%
    21:00 -3°C° 0 mm 4 mps 720 mmHg 88%
    22:00 -4°C° 0 mm 4 mps 720 mmHg 89%
    23:00 -4°C° 0 mm 4 mps 721 mmHg 89%

    17 December, Sunday

    Time Temperature Precipitation Wind Pressure Humidity
    00:00 -4°C° 0 mm 4 mps 721 mmHg 89%
    01:00 -4°C° 0 mm 4 mps 721 mmHg 89%
    02:00 -4°C° 0 mm 4 mps 722 mmHg 90%
    03:00 -4°C° 0 mm 4 mps 722 mmHg 90%
    04:00 -4°C° 0 mm 4 mps 722 mmHg 90%
    05:00 -4°C° 0 mm 3 mps 723 mmHg 90%
    06:00 -4°C° 0 mm 3 mps 723 mmHg 90%
    07:00 -4°C° 0 mm 3 mps 724 mmHg 90%
    08:00 -4°C° 0 mm 4 mps 724 mmHg 88%
    09:00 -3°C° 0 mm 4 mps 725 mmHg 87%
    10:00 -3°C° 0 mm 4 mps 725 mmHg 85%
    11:00 -2°C° 0.1 mm 4 mps 726 mmHg 85%
    12:00 -2°C° 0.1 mm 4 mps 726 mmHg 84%
    13:00 -2°C° 0.1 mm 4 mps 726 mmHg 83%
    14:00 -2°C° 0.1 mm 4 mps 727 mmHg 85%
    15:00 -1°C° 0.1 mm 3 mps 727 mmHg 86%
    16:00 -1°C° 0.1 mm 3 mps 727 mmHg 88%
    17:00 -1°C° 0.2 mm 3 mps 728 mmHg 88%
    18:00 -2°C° 0.2 mm 3 mps 728 mmHg 89%
    19:00 -2°C° 0.2 mm 3 mps 729 mmHg 90%
    20:00 -2°C° 0.1 mm 3 mps 729 mmHg 90%
    21:00 -2°C° 0.1 mm 3 mps 729 mmHg 91%
    22:00 -2°C° 0.1 mm 3 mps 730 mmHg 91%
    23:00 -2°C° 0 mm 3 mps 730 mmHg 91%

    18 December, Monday

    Time Temperature Precipitation Wind Pressure Humidity
    00:00 -2°C° 0 mm 3 mps 730 mmHg 91%
    01:00 -2°C° 0 mm 3 mps 730 mmHg 92%
    02:00 -4°C° 0 mm 3 mps 730 mmHg 92%
    03:00 -3°C° 0 mm 2 mps 730 mmHg 92%
    04:00 -3°C° 0 mm 2 mps 730 mmHg 92%
    05:00 -3°C° 0 mm 2 mps 730 mmHg 92%
    06:00 -3°C° 0 mm 2 mps 731 mmHg 92%
    07:00 -3°C° 0 mm 2 mps 731 mmHg 91%
    08:00 -3°C° 0 mm 2 mps 731 mmHg 90%
    09:00 -2°C° 0 mm 2 mps 732 mmHg 89%
    10:00 -2°C° 0 mm 2 mps 732 mmHg 88%
    11:00 -1°C° 0.1 mm 2 mps 732 mmHg 87%
    12:00 -1°C° 0.1 mm 2 mps 732 mmHg 86%
    13:00 +1°C° 0.1 mm 2 mps 732 mmHg 85%
    14:00 -1°C° 0 mm 2 mps 732 mmHg 87%
    15:00 -1°C° 0 mm 2 mps 732 mmHg 88%
    16:00 -2°C° 0 mm 2 mps 732 mmHg 89%
    17:00 -2°C° 0 mm 2 mps 732 mmHg 88%
    18:00 -2°C° 0 mm 2 mps 732 mmHg 88%
    19:00 -3°C° 0 mm 2 mps 733 mmHg 88%
    20:00 -2°C° 0 mm 2 mps 733 mmHg 87%
    21:00 -2°C° 0 mm 2 mps 733 mmHg 86%
    22:00 -2°C° 0 mm 2 mps 733 mmHg 85%
    23:00 -2°C° 0 mm 2 mps 733 mmHg 85%
    Show more